463  
ASUS43 KEAX 210010  
RWREAX  
 
WEATHER ROUNDUP FOR EASTERN KANSAS AND NORTHWEST MISSOURI  
NATIONAL WEATHER SERVICE KANSAS CITY/PLEASANT HILL MO  
600 PM CST MON NOV 20 2017  
 
KSZ040-057-103>105-MOZ028-029-037-043-210100-   
..KANSAS CITY METROPOLITAN AREA
 
 
 
CITY SKY/WX TMP DP RH WIND PRES REMARKS
 
K.C. INTL CLOUDY 57 28 33 SW21G29 29.74S  
6HR MIN TEMP: 56; 6HR MAX TEMP: 62;  
 
K.C. DOWNTOWN CLOUDY 59 28 30 S18G24 29.76R  
6HR MIN TEMP: 58; 6HR MAX TEMP: 63;  
 
LEES SUMMIT CLOUDY 54 31 41 S15 29.78R  
6HR MIN TEMP: 54; 6HR MAX TEMP: 61;  
 
OLATHE - IXD CLOUDY 54 28 36 S14 29.78R  
6HR MIN TEMP: 54; 6HR MAX TEMP: 61; 6HR PCP: TRACE;  
 
OLATHE - OJC CLOUDY 55 28 35 S14G22 29.78R  
6HR MIN TEMP: 55; 6HR MAX TEMP: 60; 6HR PCP: TRACE;  
 
LAWRENCE CLOUDY 58 28 32 S13 29.77R  
 

 
 
MOZ001>008-011>017-020>025-030>033-038>040-044>046-053-054-210100-   
..NORTHERN AND CENTRAL MISSOURI
 
 
 
CITY SKY/WX TMP DP RH WIND PRES REMARKS
 
ST. JOSEPH PTCLDY 56 30 37 SW15 29.72R  
6HR MIN TEMP: 56; 6HR MAX TEMP: 63;  
 
MOSBY CLOUDY 57 28 33 S8 29.77R  
WARRENSBURG PTCLDY 54 30 40 S9 29.81R  
WHITEMAN AFB CLEAR 55 29 36 SW21G29 29.77S  
6HR MIN TEMP: 55; 6HR MAX TEMP: 61;  
 
CLINTON CLOUDY 55 28 35 MISG 29.85R  
SEDALIA CLOUDY 55 30 38 SW13 29.83R  
6HR MIN TEMP: 55; 6HR MAX TEMP: 62;  
 
WARSAW NOT AVBL  
CHILLICOTHE N/A 56 31 38 S14 29.75R  
6HR MIN TEMP: 56; 6HR MAX TEMP: 62;  
 
KIRKSVILLE CLOUDY 55 31 39 SW15G24 29.75R  
6HR MIN TEMP: 54; 6HR MAX TEMP: 60;  
 

 
 
MOZ041-047>049-056>058-063>065-088>090-097-210100-   
..EASTERN AND SOUTHERN MISSOURI
 
 
 
CITY SKY/WX TMP DP RH WIND PRES REMARKS
 
ST. LOUIS INTL CLEAR 53 27 36 S14 29.88S  
6HR MIN TEMP: 53; 6HR MAX TEMP: 61;  
 
SPIRIT OF STL CLEAR 55 26 32 S10 29.86F  
COLUMBIA CLEAR 50 29 44 SW12 29.84R  
JEFFERSON CITY CLEAR 57 28 33 S6 29.84R  
ROLLA CLEAR 51 26 37 S15 29.86F  
OSAGE BEACH CLEAR 55 28 35 S8 29.87R  
SPRINGFIELD CLEAR 50 28 42 S10 29.87F  
BRANSON PTCLDY 50 28 43 S7 29.94S  
JOPLIN CLOUDY 55 29 36 SW16G23 29.89R  
WEST PLAINS CLEAR 51 26 37 S8 29.96S  
 

 
 
IAZ060-094-KSZ022-034>040-054-083-096-NEZ052-066-093-210100-    
..KANSAS...SOUTHEAST NEBRASKA AND IOWA
 
 
 
CITY SKY/WX TMP DP RH WIND PRES REMARKS
 
TOPEKA CLOUDY 59 28 30 SW7 29.76R  
6HR MIN TEMP: 59; 6HR MAX TEMP: 65;  
 
MANHATTAN CLOUDY 58 26 29 SW13 29.72S  
EMPORIA CLOUDY 55 28 35 S12 29.78R  
CHANUTE PTCLDY 54 31 41 S15 29.82F  
WICHITA CLOUDY 58 28 32 S20G28 29.78R  
OMAHA PTCLDY 50 28 42 S9 29.64R  
LINCOLN CLEAR 51 26 37 SW8 29.65R  
FALLS CITY CLOUDY 56 28 34 S15 29.64F  
LAMONI CLOUDY 54 31 41 SW17 29.67S  
DES MOINES CLOUDY 55 28 35 SW12 29.64R  
 

 
 
 
 
CLICK HERE TO GO TO PREVIOUS BULLETINS.

The Nexlab MO Page
The Nexlab KS Page Main Text Page